Location: Heidgraben
(53.7081°N, 9.6576°E)
Time: 20:45:24
(UTC+00:00)

Cosmos 1980 - Visible Passes

Search period start: 27 October 2020 00:00
Search period end: 06 November 2020 00:00
Orbit: 838 x 849 km, 71.0° (Epoch: 27 October)

Date Brightness Start Highest point End Pass type
(mag) Time Alt. Az. Time Alt. Az. Time Alt. Az.
27 Oct 6.1 01:17:27 16° N 01:17:27 16° N 01:18:55 10° NNE visible
27 Oct 5.9 02:59:17 14° NNW 03:00:21 14° N 03:03:21 10° NNE visible
27 Oct 5.9 04:43:15 10° NNW 04:46:54 17° NNE 04:50:34 10° ENE visible
28 Oct 6.3 01:03:13 15° NNE 01:03:13 15° NNE 01:04:20 10° NNE visible
28 Oct 5.9 02:45:04 14° NNW 02:45:41 14° N 02:48:43 10° NNE visible
28 Oct 5.9 04:28:38 10° NNW 04:32:15 17° NNE 04:35:52 10° ENE visible
29 Oct 6.4 00:49:00 13° NNE 00:49:00 13° NNE 00:49:43 10° NNE visible
29 Oct 5.9 02:30:51 14° NNW 02:31:02 14° N 02:34:06 10° NNE visible
29 Oct 5.9 04:14:01 10° NNW 04:17:36 17° NNE 04:21:10 10° ENE visible
30 Oct 6.6 00:34:47 11° NNE 00:34:47 11° NNE 00:35:07 10° NNE visible
30 Oct 6.0 02:16:38 14° N 02:16:38 14° N 02:19:27 10° NNE visible
30 Oct 6.0 03:59:24 10° NNW 04:02:57 16° NNE 04:06:28 10° NE visible
31 Oct 6.1 02:02:26 14° N 02:02:26 14° N 02:04:50 10° NNE visible
31 Oct 6.0 03:44:48 10° NNW 03:48:17 16° NNE 03:51:46 10° NE visible
31 Oct 5.0 05:28:51 10° NNW 05:34:07 36° NE 05:39:21 10° ESE visible
01 Nov 6.2 01:48:14 14° N 01:48:14 14° N 01:50:12 10° NNE visible
01 Nov 6.0 03:30:10 10° NNW 03:33:38 16° NNE 03:37:05 10° NE visible
01 Nov 5.1 05:14:15 10° NNW 05:19:29 35° NE 05:24:41 10° ESE visible
02 Nov 6.3 01:34:03 13° N 01:34:03 13° N 01:35:34 10° NNE visible
02 Nov 6.0 03:15:53 11° NNW 03:18:58 16° NNE 03:22:22 10° NE visible
02 Nov 5.1 04:59:39 10° NNW 05:04:51 35° NE 05:10:01 10° ESE visible
03 Nov 6.4 01:19:53 13° NNE 01:19:53 13° NNE 01:20:57 10° NNE visible
03 Nov 6.0 03:01:43 12° NNW 03:04:19 16° NNE 03:07:41 10° NE visible
03 Nov 5.1 04:45:04 10° NNW 04:50:13 34° NE 04:55:21 10° ESE visible
04 Nov 6.5 01:05:44 11° NNE 01:05:44 11° NNE 01:06:19 10° NNE visible
04 Nov 6.0 02:47:34 13° N 02:49:40 15° NNE 02:52:59 10° NE visible
04 Nov 5.2 04:30:27 10° NNW 04:35:36 33° NE 04:40:42 10° ESE visible
05 Nov 6.6 00:51:36 10° NNE 00:51:36 10° NNE 00:51:42 10° NNE visible
05 Nov 6.0 02:33:27 14° N 02:35:00 15° NNE 02:38:17 10° NE visible
05 Nov 5.2 04:15:52 10° NNW 04:20:58 32° NE 04:26:02 10° ESE visible
